Regional Weather Roundup
Issued by NWS

Home | Current Version | Previous Version | Graphics & Text | Print | Product List | Glossary On
Versions: 1 2 3 4 5 6 7 8 9 10 11 12 13 14 15 16 17 18 19 20 21 22 23 24 25 26 27 28 29 30 31 32 33 34 35 36 37 38 39 40 41 42 43 44 45 46 47 48 49 50
000
ASUS45 KTFX 281804
RWRMT
MONTANA HOURLY WEATHER ROUNDUP
NATIONAL WEATHER SERVICE GREAT FALLS MT
1104 AM MST WED JAN 28 2015

NOTE: "FAIR" INDICATES FEW OR NO CLOUDS BELOW 12000 FEET WITH NO
SIGNIFICANT WEATHER AND/OR OBSTRUCTIONS TO VISIBILITY.

* THESE STATIONS ARE NOT UNDER NWS QUALITY CONTROL. THEY DO NOT
   REPORT WEATHER SUCH AS PRECIPITATION OR FOG.

MTZ001>007-043-281900-
WEST OF THE DIVIDE
CITY           SKY/WX    TMP DP  RH WIND       PRES   REMARKS
KALISPELL      SUNNY     23  19  85 NE6       30.30R WCI  16
MISSOULA       CLOUDY    34  30  85 CALM      30.32R
BUTTE          CLOUDY    37  27  67 NW7       30.25R WCI  32
MULLAN PASS    FOG       28  28 100 SW5       30.27R VSB 1 1/2 WCI  22
* ANACONDA     PTSUNNY   39  27  62 SW11       N/A   WCI  32
* ESSEX        N/A       31  27  85 N1         N/A
* LINCOLN      N/A       39  27  62 S4G9       N/A
* LOOKOUT PASS N/A       35  30  82 N/A        N/A
* POLSON       N/A       40  31  70 SE2        N/A
* RONAN APT    SUNNY     36  36 100 N/A        N/A
* SEELEY LAKE  N/A       29  25  85 N/A        N/A
* THOMP F APT  PTCLDY    35  32  89 N/A        N/A
$$

MTZ008-052>055-281900-
SOUTHWEST MONTANA
CITY           SKY/WX    TMP DP  RH WIND       PRES   REMARKS
BOZEMAN        PTCLDY    43  36  76 CALM      30.24R
DILLON         PTSUNNY   39  34  82 N3        30.23R
* W YELLOWSTON PTSUNNY   34  32  92 SW3        N/A
* THREE FORKS  PTCLDY    48  36  63 W10        N/A
* BOULDER HILL N/A       41  21  45 S4         N/A
* MONIDA PASS  N/A       33  33 100 NW9        N/A   WCI  25
* RAYNOLDS PAS N/A       32  13  45 SE13       N/A   WCI  22
* WHITEHALL    N/A       49  27  43 W12G17     N/A
* WISE RIVER   N/A       36  25  64 NW5        N/A   WCI  32
$$

MTZ009>010-012-014-046-048-049-054-281900-
EAST SLOPES AND CENTRAL MONTANA
CITY           SKY/WX    TMP DP  RH WIND       PRES   REMARKS
CUT BANK       FOG       34  30  85 N7        30.23R WCI  28
GREAT FALLS    SUNNY     45  28  51 NW6       30.21R
HELENA         PTCLDY    48  27  44 W15       30.22R
MALMSTROM AFB  SUNNY     43  30  60 W7        30.22R
* DEARBORN     N/A       44  27  51 N/A        N/A
* EAST GLACIER N/A       40  21  47 NW11G18    N/A   WCI  33
* MONARCH      N/A       36  21  54 SW6        N/A   WCI  31
* PENDROY      N/A       37  32  82 VRB11      N/A   WCI  29
* ROGERS PASS  N/A       37  25  62 SE10G22    N/A   WCI  30
* SWEET GRASS  N/A       32  32 100 W10        N/A   WCI  24
$$

MTZ011-013-016-021-035-040-045-047-050-051-281900-
NORTH CENTRAL MONTANA
CITY           SKY/WX    TMP DP  RH WIND       PRES   REMARKS
HAVRE          CLOUDY    36  30  79 NW10      30.24R WCI  29
LEWISTOWN      PTSUNNY   39  28  65 NW10      30.17R WCI  32
* N BAR RANCH  SUNNY     45  28  51 NW12G23   30.14R
* CHESTER      N/A       38  32  79 N3         N/A
* DENTON       N/A       40  30  68 W15        N/A   WCI  32
* GEYSER       N/A       44  27  51 W16        N/A
* JUDITH GAP   N/A       44  27  51 NW20G30    N/A
* LOMA         N/A       39  33  79 NE2        N/A
$$

MTZ017>020-022>027-061-062-281900-
NORTHEAST MONTANA
CITY           SKY/WX    TMP DP  RH WIND       PRES   REMARKS
GLASGOW        CLOUDY    34  28  79 NW20      30.09R WCI  23
GLENDIVE       CLOUDY    36  30  79 NW24G32   29.99R WCI  24
JORDAN         PTCLDY    37  30  76 NW17G26   30.09R WCI  27
SIDNEY         CLOUDY    34  28  79 NW16G25   30.01R WCI  24
WOLF POINT     CLOUDY    36  30  79 NW17G26   30.08R WCI  26
* BEAVER HILL  N/A       40  32  73 NW30G37    N/A   WCI  28
* CIRCLE       N/A       34  31  89 NW16       N/A   WCI  24
* LINDSAY DVD  N/A       31  30  96 NW29G40    N/A   WCI  16
* NAVAJO       N/A       29  27  92 N25G32     N/A   WCI  15
* SACO         N/A       34  30  85 NW21G27    N/A   WCI  22
$$

MTZ028>042-056>058-281900-
SOUTHCENTRAL AND SOUTHEAST MONTANA
CITY           SKY/WX    TMP DP  RH WIND       PRES   REMARKS
BAKER          CLOUDY    43  30  60 W14       29.95R
BILLINGS       PTSUNNY   50  25  38 NW22G31   30.13R
LIVINGSTON     PTSUNNY   48  27  44 NW16      30.19R
MILES CITY     PTSUNNY   45  30  56 NW20G29   30.02R
* LAUREL APT   CLOUDY    52  23  32 NW14       N/A
* ROUNDUP APT  PTCLDY    52  23  32 W18G26     N/A
* ALZADA       N/A       48  29  48 W11G17     N/A
* HYSHAM       N/A       49  25  39 NW17G24    N/A
* REED POINT   N/A       51  27  39 W17G24     N/A
* ROSCOE HILL  N/A       48  24  39 NW8        N/A
$$

REGIONAL REPORTS...DAKOTAS
CITY           SKY/WX    TMP DP  RH WIND       PRES   REMARKS
WILLISTON      FOG       30  28  92 N14G23    29.97R WCI  19
DICKINSON      CLOUDY    45  32  60 NW25G31   29.83R
CROSBY         FOG       30  30 100 N15       29.97R VSB 1 1/2 WCI  19
WATFORD CITY   FOG       32  30  92 NW17G24   29.91R WCI  21
BISMARCK       CLOUDY    36  32  85 NW7       29.80R WCI  30
GRAND FORKS    FOG       34  32  92 S7        29.78S VSB 3    WCI  28
FARGO          FOG       36  30  79 S15       29.77F WCI  27
BUFFALO SD     CLOUDY    48  28  46 NW33G45   29.81R
RAPID CITY     CLOUDY    55  25  31 NW31G40   29.89R
$$

REGIONAL REPORTS...WYOMING/IDAHO/WASHINGTON
CITY           SKY/WX    TMP DP  RH WIND       PRES   REMARKS
GILLETTE       CLOUDY    48  32  54 NW13      30.04R
SHERIDAN       CLOUDY    48  34  59 NW23G29   30.10R
CODY           CLOUDY    45  39  80 W3        30.15R
YELLOWSTONE LA PTSUNNY   30  28  92 CALM      30.25R
SALMON         CLOUDY   N/A N/A N/A CALM      30.34R
MULLAN PASS    FOG       28  28 100 SW5       30.27S VSB 1 1/2 WCI  22
SAND POINT     CLOUDY    36  36 100 S5        30.37R WCI  32
SPOKANE        FOG       34  34 100 NE8       30.35R VSB M1/4 WCI  27
$$

REGIONAL REPORTS...ALBERTA
CITY           SKY/WX    TMP DP  RH WIND       PRES   REMARKS
EDMONTON       PTSUNNY   27  25  92 N12       30.23R WCI  16
$$

REGIONAL REPORTS...SASKATCHEWAN
CITY           SKY/WX    TMP DP  RH WIND       PRES   REMARKS
SWIFT CURRENT  HVY SNOW  28  28 100 NW15G21   30.11R VSB M1/4 WCI  16
REGINA         LGT SNOW  25  25 100 NW14      30.03R WCI  13

$$




USA.gov is the U.S. government's official web portal to all federal, state and local government web resources and services.